{"data":{"norad_id":59788,"epoch":"2026-05-25T00:43:56.960832Z","epoch_age_seconds":73140,"freshness":"FRESH","line1":"1 59788U 24093G   26145.03052038 -.00001109  00000+0 -30792-4 0  9991","line2":"2 59788  43.0029 137.5211 0001287 278.9746  81.0960 15.27584330114376","mean_motion":15.2758433,"eccentricity":0.0001287,"inclination_deg":43.0029,"raan_deg":137.5211,"arg_perigee_deg":278.9746,"mean_anomaly_deg":81.096,"bstar":-3.0792e-5,"rev_number":11437,"period_min":94.266481510713,"perigee_km":482.15309751068,"apogee_km":483.91916347446,"semimajor_km":6861.1731304926,"source":"CELESTRAK","updated_at":"2026-05-25T13:38:19.081351Z"}}